TFL28N EHAM-LTAI

Flight info

Callsign TFL28N
Flight time N/A
Altitude 37000
Route EDUPO Z739 MISGO DCT GMH DCT EKSAK DCT SWALM DCT GASKA DCT ENITA DCT ETVIS DCT BUDWA DCT BUDEX DCT TAGAS DCT STEIN DCT BABIT DCT LULIK DCT NIVIS DCT OKLOP DCT NISVA DCT USALI DCT RODIP UN131 PIBOM DCT BELGI UN131 KULAR UT39 NESIL
Aircraft B38M/M-SDE1FGHILORVWXY/HB1

Departure

Time N/A
Airport Amsterdam Airport Schiphol (EHAM)

Arrival

Time 2026-05-03 20:44
Airport Antalya International Airport (LTAI)
Time Latitude Longitude Altitude Speed Heading
2026-05-03 20:15 38.30789 28.87805 36815 ft 473 kts 145°
2026-05-03 20:15 38.25411 28.92585 36791 ft 471 kts 146°
2026-05-03 20:16 38.20034 28.97357 36786 ft 472 kts 146°
2026-05-03 20:16 38.14644 29.02130 36791 ft 473 kts 146°
2026-05-03 20:17 38.09246 29.06903 36805 ft 473 kts 146°
2026-05-03 20:17 38.03846 29.11669 36792 ft 473 kts 146°
2026-05-03 20:18 37.98430 29.16440 36777 ft 474 kts 146°
2026-05-03 20:18 37.93019 29.21197 36764 ft 473 kts 146°
2026-05-03 20:19 37.87587 29.25965 36775 ft 475 kts 146°
2026-05-03 20:19 37.82185 29.30699 36206 ft 473 kts 146°
2026-05-03 20:19 37.79436 29.33105 34909 ft 486 kts 146°
2026-05-03 20:20 37.76685 29.35513 34117 ft 477 kts 146°
2026-05-03 20:20 37.73947 29.37906 32989 ft 482 kts 145°
2026-05-03 20:20 37.71163 29.40339 31915 ft 488 kts 144°
2026-05-03 20:20 37.68396 29.42751 31378 ft 479 kts 144°
2026-05-03 20:21 37.65657 29.45138 30429 ft 478 kts 144°
2026-05-03 20:21 37.62924 29.47517 29038 ft 476 kts 144°
2026-05-03 20:21 37.60233 29.49859 28001 ft 466 kts 144°
2026-05-03 20:21 37.57621 29.52129 27144 ft 451 kts 143°
2026-05-03 20:22 37.55047 29.54365 26618 ft 449 kts 143°
2026-05-03 20:22 37.52543 29.56535 26373 ft 426 kts 143°
2026-05-03 20:22 37.50153 29.58608 26111 ft 406 kts 143°
2026-05-03 20:22 37.47911 29.60551 25876 ft 387 kts 142°
2026-05-03 20:23 37.45733 29.62436 25678 ft 375 kts 142°
2026-05-03 20:23 37.43601 29.64280 25454 ft 368 kts 142°
2026-05-03 20:23 37.41542 29.66060 25261 ft 354 kts 142°
2026-05-03 20:23 37.39522 29.67806 25120 ft 356 kts 142°
2026-05-03 20:24 37.37459 29.69587 24918 ft 362 kts 142°
2026-05-03 20:24 37.35399 29.71433 24607 ft 364 kts 135°
2026-05-03 20:24 37.33809 29.73851 24099 ft 357 kts 115°
2026-05-03 20:24 37.32650 29.76588 23705 ft 354 kts 114°
2026-05-03 20:25 37.31492 29.79318 23222 ft 355 kts 113°
2026-05-03 20:25 37.30341 29.82077 22639 ft 357 kts 113°
2026-05-03 20:25 37.29199 29.84838 22136 ft 356 kts 113°
2026-05-03 20:25 37.28064 29.87599 21638 ft 353 kts 114°
2026-05-03 20:26 37.26958 29.90294 21168 ft 344 kts 114°
2026-05-03 20:26 37.25874 29.92940 20696 ft 338 kts 114°
2026-05-03 20:26 37.24806 29.95546 20230 ft 336 kts 114°
2026-05-03 20:26 37.23737 29.98150 19764 ft 336 kts 114°
2026-05-03 20:27 37.22668 30.00757 19250 ft 335 kts 115°
2026-05-03 20:27 37.21605 30.03359 18810 ft 335 kts 115°
2026-05-03 20:27 37.20534 30.05972 18362 ft 337 kts 116°
2026-05-03 20:27 37.19463 30.08585 17898 ft 336 kts 115°
2026-05-03 20:28 37.18392 30.11193 17365 ft 338 kts 116°
2026-05-03 20:28 37.17312 30.13824 16895 ft 340 kts 117°
2026-05-03 20:28 37.16229 30.16459 16424 ft 340 kts 117°
2026-05-03 20:28 37.15149 30.19082 15954 ft 341 kts 117°
2026-05-03 20:29 37.14061 30.21725 15481 ft 342 kts 117°
2026-05-03 20:29 37.12970 30.24372 15020 ft 343 kts 117°
2026-05-03 20:29 37.11874 30.27029 14635 ft 341 kts 117°
2026-05-03 20:29 37.10803 30.29659 14320 ft 337 kts 114°
2026-05-03 20:30 37.10247 30.32439 13881 ft 334 kts 91°
2026-05-03 20:30 37.10195 30.35380 13425 ft 332 kts 90°
2026-05-03 20:30 37.10126 30.38234 12914 ft 324 kts 90°
2026-05-03 20:30 37.10060 30.40982 12488 ft 319 kts 90°
2026-05-03 20:31 37.09994 30.43765 12027 ft 320 kts 90°
2026-05-03 20:31 37.09929 30.46554 11585 ft 321 kts 90°
2026-05-03 20:31 37.09863 30.49355 11151 ft 321 kts 90°
2026-05-03 20:31 37.09568 30.52115 10707 ft 323 kts 108°
2026-05-03 20:32 37.08589 30.54663 10230 ft 325 kts 117°
2026-05-03 20:32 37.07552 30.57175 9798 ft 325 kts 117°
2026-05-03 20:32 37.06517 30.59692 9339 ft 326 kts 117°
2026-05-03 20:32 37.05475 30.62225 8829 ft 328 kts 117°
2026-05-03 20:33 37.04427 30.64766 8349 ft 328 kts 117°
2026-05-03 20:33 37.03097 30.67000 8245 ft 315 kts 142°
2026-05-03 20:33 37.01202 30.68143 7943 ft 297 kts 173°
2026-05-03 20:33 36.99186 30.68072 7358 ft 288 kts 192°
2026-05-03 20:34 36.97199 30.67739 6766 ft 288 kts 189°
2026-05-03 20:34 36.95256 30.67456 6287 ft 283 kts 189°
2026-05-03 20:34 36.93287 30.67178 5864 ft 277 kts 189°
2026-05-03 20:34 36.91409 30.66918 5434 ft 271 kts 189°
2026-05-03 20:35 36.89555 30.66665 5042 ft 265 kts 188°
2026-05-03 20:35 36.87754 30.66419 4685 ft 257 kts 188°
2026-05-03 20:35 36.85997 30.66181 4333 ft 251 kts 188°
2026-05-03 20:35 36.84269 30.65947 3987 ft 250 kts 187°
2026-05-03 20:36 36.82553 30.65714 3604 ft 249 kts 187°
2026-05-03 20:36 36.80839 30.65483 3290 ft 245 kts 187°
2026-05-03 20:36 36.79162 30.65257 3015 ft 237 kts 187°
2026-05-03 20:36 36.77587 30.65044 2965 ft 218 kts 187°
2026-05-03 20:37 36.76165 30.64852 3018 ft 193 kts 187°
2026-05-03 20:37 36.74869 30.64676 2965 ft 185 kts 187°
2026-05-03 20:37 36.73607 30.64550 2938 ft 183 kts 176°
2026-05-03 20:37 36.72461 30.65084 2892 ft 175 kts 139°
2026-05-03 20:38 36.71748 30.66251 2812 ft 168 kts 105°
2026-05-03 20:38 36.71624 30.67644 2761 ft 159 kts 75°
2026-05-03 20:38 36.71978 30.68924 2753 ft 156 kts 60°
2026-05-03 20:38 36.72445 30.70150 2751 ft 156 kts 59°
2026-05-03 20:39 36.72931 30.71357 2725 ft 155 kts 58°
2026-05-03 20:39 36.73429 30.72549 2700 ft 155 kts 58°
2026-05-03 20:39 36.73937 30.73738 2702 ft 155 kts 57°
2026-05-03 20:39 36.74452 30.74920 2693 ft 156 kts 58°
2026-05-03 20:40 36.74973 30.76095 2701 ft 150 kts 54°
2026-05-03 20:40 36.75724 30.76866 2593 ft 140 kts 17°
2026-05-03 20:40 36.76690 30.77153 2490 ft 146 kts
2026-05-03 20:40 36.77694 30.77387 2337 ft 146 kts 11°
2026-05-03 20:41 36.78697 30.77659 2055 ft 147 kts 12°
2026-05-03 20:41 36.79695 30.77834 1903 ft 143 kts
2026-05-03 20:41 36.80693 30.77940 1866 ft 145 kts
2026-05-03 20:41 36.81688 30.78108 1574 ft 143 kts
2026-05-03 20:42 36.82673 30.78253 1310 ft 142 kts
2026-05-03 20:42 36.83659 30.78383 1106 ft 142 kts
2026-05-03 20:42 36.84649 30.78520 919 ft 145 kts
2026-05-03 20:42 36.85641 30.78668 741 ft 143 kts
2026-05-03 20:43 36.86620 30.78802 561 ft 141 kts
2026-05-03 20:43 36.87621 30.78935 392 ft 146 kts
2026-05-03 20:43 36.88629 30.79074 209 ft 146 kts
2026-05-03 20:43 36.89557 30.79190 181 ft 120 kts
2026-05-03 20:44 36.90250 30.79294 183 ft 78 kts
2026-05-03 20:44 36.90681 30.79356 188 ft 42 kts
2026-05-03 20:44 36.90959 30.79421 194 ft 39 kts 27°
2026-05-03 20:44 36.91055 30.79507 189 ft 12 kts 37°
2026-05-03 20:45 36.91132 30.79579 186 ft 13 kts 37°
2026-05-03 20:45 36.91199 30.79643 195 ft 0 kts 46°
2026-05-03 20:45 36.91202 30.79647 196 ft 0 kts 46°